Wind_Speed
21 22 23 24 23 23 23 22 21 20 20 20 19 19 19 19 19 18 18 16 16 15 15 15 14 14 14 14 14 14 15 16 16 16 17 18 19 20 22 22 23 25 26
20 21 22 22 22 21 21 20 19 19 19 19 18 17 17 17 17 17 16 15 14 14 13 13 12 12 12 13 13 14 14 14 14 15 15 16 17 18 18 20 21 22 22
19 20 20 20 19 19 18 18 17 17 17 17 17 17 17 16 16 15 14 13 13 13 13 12 12 12 12 12 12 13 13 13 13 13 14 14 15 15 16 18 18 19 20
18 18 18 18 17 17 17 16 16 15 15 15 15 16 16 14 14 14 13 12 12 13 12 12 11 11 11 11 11 11 12 12 12 12 13 13 13 14 15 17 18 19 20
17 16 16 16 16 16 16 15 15 14 15 15 15 15 14 13 13 12 12 12 12 12 11 11 11 10 11 11 10 10 10 10 10 11 11 11 12 13 14 15 16 17 18
15 15 14 14 15 15 14 14 14 13 13 14 14 14 13 13 13 12 12 12 12 11 11 10 10 10 10 10 10 10 11 11 11 11 11 10 10 10 11 14 15 16 17
14 14 14 13 14 14 13 13 13 12 12 12 12 12 12 12 12 12 11 11 11 11 11 10 11 10 10 10 10 10 11 11 11 11 11 11 10 10 10 12 13 15 16
14 13 13 13 13 12 12 12 12 12 12 12 12 11 11 12 12 12 11 10 10 10 10 10 10 10 10 9 10 11 11 11 10 10 10 11 10 10 10 11 12 13 14
13 12 12 12 12 12 12 12 12 12 12 12 11 11 12 12 11 11 11 10 9 9 9 9 9 10 10 10 10 10 10 10 10 10 10 10 11 11 11 11 11 12 13
12 12 12 11 11 12 12 12 12 11 11 12 11 11 11 12 12 11 10 9 8 8 8 9 9 8 8 8 8 9 9 9 10 10 10 11 11 10 11 10 11 11 12
11 11 11 11 11 11 12 11 11 11 11 12 12 12 12 12 12 12 11 9 8 8 8 8 8 8 7 7 7 8 8 8 9 10 11 11 11 11 11 12 11 12 13
10 10 10 10 10 11 11 11 11 11 11 11 11 11 12 12 11 11 11 10 9 8 8 8 8 8 8 8 8 8 8 8 9 9 9 10 10 11 11 12 12 12 13
9 9 9 9 9 10 10 10 10 10 10 10 10 11 11 11 11 11 11 11 10 9 8 8 8 8 8 9 9 9 9 10 10 10 10 10 10 11 12 13 13 12 12
7 7 8 8 8 9 10 10 10 10 11 11 10 10 11 11 11 11 11 11 10 10 9 9 9 9 9 9 10 10 10 11 11 11 11 11 12 12 13 13 13 14 14
6 7 7 7 8 9 9 10 10 10 11 10 11 11 11 11 12 12 12 11 11 11 11 10 10 10 10 10 10 10 11 11 10 11 11 12 13 13 14 14 15 15 16
5 6 7 7 8 9 9 10 11 11 11 11 11 12 12 12 12 12 12 12 12 12 12 11 12 11 11 11 11 11 12 11 11 11 12 13 14 14 15 16 16 17 18
5 6 7 7 8 9 10 10 10 11 11 12 12 12 12 13 13 13 12 12 13 13 13 13 13 12 12 13 13 12 12 12 12 13 13 14 14 15 16 17 17 17 18
6 7 7 8 9 9 10 10 10 11 12 12 13 13 13 14 14 14 13 14 14 14 14 14 14 14 14 14 14 14 14 14 14 14 15 15 16 17 18 18 18 19 20
6 7 8 8 9 10 10 10 10 11 12 13 13 14 14 15 15 15 15 15 15 15 15 15 15 15 16 16 17 17 17 16 17 18 17 18 18 19 20 21 21 22 23
7 8 8 9 10 10 10 11 11 12 13 13 14 14 14 15 15 16 16 16 16 16 16 16 16 17 17 17 18 18 18 19 20 20 20 20 21 22 22 23 23 24 24
7 8 9 10 10 10 11 12 12 13 14 14 15 15 16 16 17 17 17 17 17 18 18 18 19 19 20 20 20 20 20 21 21 21 22 22 23 23 24 24 24 25 25
6 7 9 9 10 11 11 12 13 13 14 15 16 17 17 18 18 19 19 19 19 19 20 20 21 21 22 22 22 22 21 22 22 23 24 24 24 24 25 25 26 26 26
6 7 9 9 10 11 12 12 13 14 15 16 17 17 18 18 19 20 20 20 21 21 21 22 22 22 22 23 23 23 23 23 24 25 25 26 26 26 26 27 27 27 27
6 8 9 10 11 11 12 13 14 16 17 17 17 18 18 19 20 21 21 21 22 22 23 23 23 23 23 24 24 24 25 25 25 26 26 26 27 27 27 27 27 27 27
7 8 9 10 11 12 13 14 15 16 17 18 18 19 20 21 22 22 23 23 23 24 24 24 24 24 25 25 25 26 26 26 27 27 27 27 27 27 27 28 28 28 29
8 9 9 10 11 12 14 15 16 18 19 19 20 20 21 22 23 24 24 25 25 25 25 26 26 26 27 27 27 28 28 28 29 29 28 28 27 28 28 29 29 29 29
Wind_Direction
304 304 304 305 305 306 305 302 301 301 302 304 306 306 304 300 298 297 297 295 292 292 292 292 287 283 280 278 277 276 273 271 269 265 264 260 257 255 252 248 243 240 240
306 308 310 310 309 308 308 305 303 304 306 308 309 309 307 305 305 302 297 295 294 296 294 291 286 283 282 279 277 275 277 274 269 267 263 261 259 257 253 246 239 236 238
310 313 315 316 313 312 311 310 309 310 311 309 309 307 307 307 306 305 300 299 299 299 296 292 289 287 283 282 281 278 276 275 270 266 262 262 260 257 253 246 240 239 241
314 317 319 320 318 317 316 315 315 315 313 311 311 307 306 307 306 306 302 300 300 300 297 296 292 286 284 285 283 280 276 274 271 266 264 263 261 256 252 246 242 243 243
316 320 321 322 322 321 320 319 319 317 315 315 313 313 309 308 310 309 308 305 307 305 302 299 294 288 284 283 283 280 278 277 274 270 266 262 262 259 255 249 245 245 247
319 322 323 324 325 327 325 324 323 321 321 318 317 314 309 309 309 307 310 308 307 306 304 302 295 287 283 282 282 279 276 275 272 272 268 266 267 262 256 248 247 248 250
321 322 323 326 330 332 331 330 332 330 327 325 323 320 314 312 314 314 313 311 311 311 306 300 297 289 286 280 281 281 279 277 275 272 266 264 267 268 262 255 253 253 252
318 321 323 326 330 332 335 336 336 335 333 332 332 332 333 328 324 323 321 316 313 310 309 306 301 296 294 288 286 284 282 281 278 274 270 271 270 272 262 257 259 258 256
316 320 323 324 327 330 334 336 335 335 336 337 338 338 339 338 334 330 328 321 316 313 313 315 311 305 302 298 291 286 282 278 278 277 273 273 272 270 268 264 263 262 257
318 320 323 325 327 329 332 333 335 336 340 341 341 339 340 343 344 341 336 333 329 325 322 319 318 314 310 307 304 297 287 281 281 281 280 277 276 271 267 266 267 265 259
324 325 327 329 329 330 333 335 336 336 338 339 339 340 342 342 341 342 342 343 342 335 328 324 321 318 317 315 312 311 300 291 289 287 286 283 284 282 278 275 274 272 266
326 330 333 335 336 336 337 337 340 341 340 340 341 343 345 346 346 347 347 348 347 339 333 331 327 325 321 318 312 311 305 299 299 293 293 291 289 289 286 282 280 274 268
327 330 335 340 343 345 346 346 349 350 350 348 346 348 349 349 351 351 350 348 346 344 341 339 334 329 324 317 311 309 307 300 297 294 291 292 292 290 287 285 281 277 275
335 338 342 342 346 348 352 355 356 357 356 355 351 349 351 353 353 352 350 348 346 341 341 342 340 335 328 321 316 313 310 304 296 291 289 291 290 290 289 286 283 282 277
337 345 349 349 350 351 355 357 357 356 355 355 354 353 353 352 349 348 348 347 343 340 336 335 334 332 329 326 323 319 315 310 301 293 291 292 290 289 289 286 283 283 281
344 350 352 353 351 351 353 354 355 356 356 354 354 353 351 350 349 348 346 343 341 339 337 331 327 326 324 322 320 317 315 312 306 300 296 293 292 289 288 288 287 285 282
0 357 353 353 351 349 348 348 350 351 352 352 351 349 348 347 347 345 343 339 335 332 330 327 323 320 317 316 315 314 312 311 309 302 297 294 292 290 288 287 286 286 286
12 3 355 351 351 349 347 347 348 348 347 348 347 346 344 344 343 341 340 338 335 332 329 326 323 318 314 311 310 310 308 307 307 307 304 299 296 294 291 288 287 287 287
8 2 356 352 350 350 350 348 346 345 345 345 343 342 342 341 340 339 340 338 335 332 330 327 324 320 317 314 312 310 307 305 304 304 301 297 295 295 295 292 290 289 288
355 358 357 353 351 352 351 348 345 344 344 343 341 340 339 339 338 338 338 335 332 331 330 326 322 320 316 312 309 309 306 304 304 303 300 298 296 295 295 295 294 292 291
349 353 353 353 354 353 350 347 346 345 344 341 339 339 338 338 338 338 337 334 331 329 327 326 324 321 318 314 312 309 307 305 303 301 300 299 297 296 297 296 294 293 291
348 350 350 350 349 347 345 344 344 344 343 340 339 338 338 338 338 337 335 334 333 331 328 326 324 320 317 315 314 313 310 306 304 304 304 303 301 298 297 297 296 295 294
355 354 351 350 348 346 344 343 343 343 342 341 340 339 339 338 337 335 334 333 330 328 326 325 324 322 320 320 316 313 312 310 307 305 303 301 300 298 298 297 296 296 295
354 351 350 351 351 349 347 346 345 344 343 342 341 340 339 339 338 337 336 334 332 330 329 328 327 324 322 320 317 314 312 310 308 306 304 302 300 298 298 298 297 296 295
358 355 354 354 354 352 349 346 344 343 342 341 341 341 341 340 339 338 335 332 331 330 329 327 325 323 321 319 316 314 313 311 308 306 303 302 301 299 299 298 297 297 296
357 354 353 352 352 351 349 347 345 344 344 343 342 340 339 339 338 338 336 334 332 331 330 328 327 324 322 320 318 315 312 310 309 308 305 303 302 300 300 299 298 297 296
Height
5781 5778 5774 5770 5766 5763 5760 5757 5754 5752 5749 5746 5743 5741 5738 5735 5732 5730 5728 5726 5725 5723 5722 5721 5720 5719 5718 5717 5716 5716 5715 5715 5715 5714 5713 5713 5714 5714 5715 5716 5718 5720 5722
5776 5772 5768 5764 5761 5758 5755 5752 5749 5746 5744 5741 5739 5736 5733 5730 5728 5725 5723 5722 5720 5719 5718 5717 5716 5715 5714 5713 5712 5712 5711 5710 5710 5709 5709 5709 5709 5709 5709 5711 5712 5714 5716
5771 5767 5763 5760 5757 5754 5751 5748 5745 5742 5740 5737 5734 5732 5729 5726 5724 5722 5720 5718 5717 5715 5714 5713 5712 5711 5710 5709 5709 5708 5707 5706 5706 5705 5705 5704 5704 5704 5705 5706 5707 5709 5710
5767 5763 5760 5757 5753 5751 5748 5745 5742 5739 5736 5734 5731 5728 5726 5723 5721 5719 5717 5715 5713 5712 5710 5709 5708 5707 5707 5706 5705 5704 5703 5703 5702 5702 5701 5701 5700 5700 5700 5701 5702 5703 5704
5763 5760 5757 5754 5751 5748 5745 5742 5739 5736 5733 5730 5728 5725 5723 5720 5718 5716 5714 5712 5711 5709 5707 5706 5705 5704 5703 5703 5702 5701 5700 5699 5699 5698 5697 5697 5696 5696 5696 5697 5698 5699 5699
5760 5757 5754 5752 5749 5746 5743 5740 5737 5734 5731 5728 5725 5723 5720 5718 5715 5713 5712 5710 5708 5706 5705 5703 5702 5701 5700 5699 5699 5698 5697 5697 5696 5695 5694 5694 5693 5693 5692 5693 5693 5694 5695
5758 5755 5752 5750 5747 5744 5741 5738 5735 5732 5729 5726 5723 5721 5718 5716 5714 5711 5709 5707 5705 5704 5702 5700 5699 5698 5697 5696 5695 5695 5694 5693 5693 5692 5691 5691 5690 5690 5690 5689 5689 5690 5690
5755 5753 5750 5748 5746 5743 5740 5737 5734 5731 5728 5725 5722 5719 5717 5714 5712 5709 5707 5704 5703 5701 5699 5698 5697 5695 5694 5693 5693 5692 5691 5690 5689 5688 5688 5688 5687 5687 5687 5686 5686 5686 5687
5753 5751 5748 5746 5744 5741 5738 5735 5733 5730 5727 5724 5721 5718 5715 5713 5710 5707 5705 5702 5700 5699 5697 5696 5695 5693 5692 5691 5690 5689 5688 5687 5687 5686 5685 5685 5684 5684 5683 5683 5683 5683 5683
5750 5748 5746 5744 5742 5739 5737 5734 5731 5728 5726 5723 5720 5717 5714 5711 5708 5706 5703 5701 5699 5697 5696 5694 5693 5691 5690 5689 5687 5686 5685 5685 5684 5683 5683 5682 5681 5681 5681 5680 5680 5680 5679
5748 5746 5744 5742 5740 5738 5735 5733 5730 5727 5725 5722 5719 5716 5713 5711 5708 5705 5702 5700 5698 5696 5694 5693 5691 5690 5688 5687 5686 5685 5683 5683 5682 5681 5680 5679 5678 5678 5677 5677 5676 5676 5676
5746 5745 5743 5741 5739 5736 5734 5731 5729 5726 5723 5721 5718 5715 5712 5710 5707 5704 5702 5699 5697 5695 5693 5691 5690 5688 5687 5685 5684 5683 5681 5680 5679 5678 5677 5677 5676 5675 5674 5673 5673 5672 5672
5745 5743 5741 5740 5738 5735 5733 5730 5728 5725 5722 5720 5717 5715 5712 5709 5707 5704 5701 5699 5696 5694 5692 5690 5688 5687 5685 5684 5682 5681 5679 5678 5677 5676 5675 5674 5673 5672 5671 5670 5669 5669 5668
5743 5742 5740 5739 5737 5735 5732 5730 5727 5725 5722 5719 5717 5714 5712 5709 5706 5704 5701 5698 5696 5693 5691 5689 5687 5685 5683 5682 5680 5678 5677 5675 5674 5673 5672 5671 5670 5669 5667 5666 5665 5664 5664
5742 5741 5739 5738 5736 5734 5732 5729 5727 5724 5721 5719 5716 5714 5711 5708 5706 5703 5700 5697 5695 5693 5690 5688 5686 5684 5682 5680 5678 5676 5674 5673 5671 5670 5669 5668 5666 5665 5664 5663 5662 5661 5660
5741 5740 5739 5737 5735 5733 5731 5729 5726 5724 5721 5718 5715 5713 5710 5707 5704 5702 5699 5696 5693 5691 5689 5686 5684 5682 5680 5678 5676 5674 5672 5670 5668 5667 5665 5664 5663 5661 5660 5659 5657 5656 5655
5740 5739 5738 5736 5734 5732 5730 5728 5726 5723 5720 5717 5715 5712 5709 5706 5703 5700 5698 5695 5692 5689 5687 5684 5682 5679 5677 5675 5673 5671 5669 5667 5665 5663 5661 5660 5658 5657 5655 5654 5652 5650 5649
5740 5738 5737 5735 5733 5731 5729 5727 5724 5722 5720 5717 5714 5711 5708 5705 5702 5699 5696 5693 5690 5686 5684 5681 5679 5676 5674 5672 5670 5668 5666 5664 5662 5660 5658 5656 5654 5652 5650 5648 5646 5644 5643
5739 5738 5736 5734 5732 5730 5728 5726 5724 5721 5718 5716 5713 5710 5706 5703 5700 5697 5694 5690 5687 5684 5681 5678 5676 5673 5670 5668 5666 5664 5661 5659 5657 5655 5652 5650 5648 5646 5644 5642 5640 5638 5636
5738 5737 5735 5733 5731 5729 5727 5725 5722 5720 5717 5714 5711 5708 5705 5702 5698 5695 5691 5688 5685 5682 5678 5675 5672 5669 5667 5664 5661 5659 5656 5654 5651 5649 5646 5644 5642 5639 5637 5635 5632 5630 5628
5737 5736 5734 5732 5730 5728 5726 5723 5721 5718 5715 5712 5709 5706 5703 5699 5696 5692 5689 5685 5682 5678 5675 5672 5668 5665 5662 5659 5656 5653 5650 5648 5645 5643 5640 5637 5635 5632 5629 5627 5624 5622 5620
5736 5734 5733 5731 5729 5727 5724 5722 5719 5717 5714 5710 5707 5704 5700 5697 5693 5689 5686 5682 5678 5675 5671 5668 5664 5660 5657 5653 5650 5647 5644 5641 5639 5636 5633 5630 5627 5624 5621 5619 5616 5614 5611
5735 5733 5732 5730 5728 5725 5723 5720 5718 5715 5712 5708 5705 5701 5698 5694 5690 5686 5682 5678 5675 5671 5666 5662 5659 5655 5652 5648 5644 5641 5638 5635 5632 5629 5625 5622 5619 5616 5613 5611 5608 5605 5603
5734 5732 5730 5728 5726 5724 5721 5719 5716 5713 5709 5706 5702 5698 5695 5691 5687 5683 5679 5675 5670 5666 5662 5658 5654 5650 5646 5642 5639 5635 5631 5628 5624 5621 5617 5614 5611 5608 5605 5602 5599 5596 5594
5732 5731 5729 5727 5725 5722 5720 5717 5714 5710 5707 5703 5699 5696 5692 5688 5684 5679 5675 5671 5666 5662 5657 5653 5649 5645 5641 5637 5633 5629 5625 5621 5617 5613 5609 5606 5602 5599 5596 5593 5590 5588 5584
5731 5730 5728 5726 5724 5721 5718 5715 5712 5708 5704 5700 5696 5693 5689 5684 5680 5675 5671 5666 5662 5657 5653 5648 5644 5639 5635 5630 5626 5622 5617 5613 5609 5605 5601 5597 5594 5590 5587 5584 5581 5578 5575